Location: ????????
(37.6846°N, 24.0673°E)
Time: 14:52:15
(UTC+00:00)

RUBIN 8/PSLV - Pass Details

Date: 14 July 2020
Orbit: 609 x 650 km, 97.9° (Epoch: 03 August)

Event Time Altitude Azimuth Distance (km) Brightness Sun altitude
Rises 01:48:32 0° 11° (N) 2,888 8.9 -14.5°
Reaches altitude 10° 01:50:44 10° 10° (N) 1,975 7.9 -14.2°
Maximum altitude 01:55:01 80° 284° (WNW) 624 4.5 -13.6°
Enters shadow 01:58:27 16° 198° (SSW) 1,621 6.2 -13.0°
